DELTA 1 DEB, 21292

Orbit data source: Space-Track

DELTA 1 DEB, 21292 is space debris in SSO originally from a launch on Thu, 12 Jun 1975 UTC launched from the Air Force Western Test Range (AFWTR). Debris objects in space refer to the collection of defunct objects orbiting the Earth. Examples of debris include non-operational satellites, rocket bodies, and fragments generated from explosions, collisions, or faulty payload assembly.

Loading next visibility...
Identifier
21292, 1975-052AD
Orbit
SSO
Country
Flag of USUS
Related business
Manufacturer
Unknown
Mission
Spacecraft
Bus & Motor
Unknown
Mass
Unknown
Launch date (UTC)
1975-06-12 (50 years ago)
Launch vehicle
Unknown
Launch site
Air Force Western Test Range (AFWTR)
Object type
Payload
Rocket body
Debris
Shape & HBR
Unknown
Radar Cross Section
Small (<0.1 m²)

Expand to show TLE details & history
Last TLE update: 11 hours ago

TLE from 11 hours ago
0 DELTA 1 DEB
1 21292U 75052AD  25259.13146332  .00000224  00000-0  31214-3 0  9993
2 21292  99.8081 130.2726 0224999  47.4135 104.6233 13.58486403700225
Epoch: 2025-09-16T03:09Z
TLE epoch observation values (Epoch: 2025-09-16T03:09:18.43Z)
Latitude
25.11752°
Longitude
-87.75556°
Altitude
1,089.773 km
Speed
7.287 km/s
True Right ascension
20h 59m 35s
True Declination
24° 59' 29"
Sunlit
Object was in full shadow at epoch
Visualization orbit readout
Latitude
Unknown
Longitude
Unknown
Altitude
Unknown
Speed
Unknown
Apparent Right ascension
Unknown
Apparent Declination
Unknown
Sunlit
N/A
Visualization observer readout
Local Sidereal Time
06:35:36
Azimuth
Unknown
Elevation
Unknown
Doppler factor
Unknown
Orbital elements
Apogee altitude
1,205.365 km
Perigee altitude
871.618 km
Semi-major axis
7,416.629 km
Eccentricity
0.0225
Inclination
99.8081°
RAAN
130.2726°
Arg. of periapsis
47.4135°
True anomaly
107.09971°
Mean anomaly
104.6233°
Eccentric anomaly
105.86335°
Mean motion
3.39808 °/min
Orbital period
105.94 mins
BSTAR
0.00031214
Loading maneuver chart data...
Computing Atmospheric mass density...
Loading historical data...
Loading historical data...
Loading historical data...
Loading historical data...
Loading historical data...
Loading historical data...
Loading historical data...

Documentation

Showing up to 5 results
|